LiveATC.Net - Listen to live air traffic control over the Internet! Contact LiveATC.net for advertising information


ICAO: ENGM  IATA: OSL   Airport: Oslo Gardermoen Airport
City: Oslo
Country: Norway   Continent: Europe
ENGM METAR Weather: ENGM 311920Z 00000KT 8000 -DZRA FEW003 BKN004 02/01 Q1022 TEMPO 4000 -DZRA BR BKN006
ENGM Flight Activity (FlightAware)
ENGM Approach/UNICOM
Feed Status: UP   Listeners: 4
Listen right in your browser - requires Flash (in browser, requires Flash)
Click here to listen with your own player (launches your MP3 player)
ENGM Approach/UNICOM Audio Archives
FacilityFrequency
Oslo Approach118.475
Oslo Approach120.450
Oslo Area UNICOM122.000
Oslo Director136.400
Oslo Final128.900


NOTICE

Unauthorized use prohibited. See LiveATC.net Terms of Service


Find LiveATC Audio Streams


Airport/ARTCC Code

Frequency
(e.g., 124.400, 128.75)
Site-wide search

Browse LiveATC Feeds
LiveATC Coverage Map
Top 50 LiveATC Feeds
Bad Weather Areas

LiveATC FAQ
Offer a LiveATC Feed
Contact LiveATC.net
Press Inquiries

LiveATC on iPhone
LiveATC on Android

LiveATC Mobile
(Mobile browser)

ATC Audio Archives
Interesting Recordings

LiveATC Forums


Home Page
About LiveATC.net
Make a Donation
LiveATC Bookstore

Terms of Use
Privacy Policy

ATC/Radar Sites
U.S. ARTCC Freqs
Canadian Air Freqs

AIRMETs/SIGMETs

FAA Airport Status
Nat'l Airspace Status
Arrival Demand Charts


Server Software By:
Icecast.org
Liquidsoap

Please make a donation to help us keep growing!